Regional Weather Roundup
Issued by NWS

Home | Current Version | Previous Version | Graphics & Text | Print | Product List | Glossary On
Versions: 1 2 3 4 5 6 7 8 9 10 11 12 13 14 15 16 17 18 19 20 21 22 23 24 25 26 27 28 29 30 31 32 33 34 35 36 37 38 39 40 41 42 43 44 45 46 47 48 49 50
000
ASUS43 KMPX 250901
RWRMN
WEATHER ROUNDUP FOR MINNESOTA
NATIONAL WEATHER SERVICE TWIN CITIES/CHANHASSEN MN
400 AM CDT SUN SEP 25 2016


NOTE: "FAIR" INDICATES FEW OR NO CLOUDS BELOW 12,000 FEET WITH NO
SIGNIFICANT WEATHER AND/OR OBSTRUCTIONS TO VISIBILITY. N/A MEANS
CURRENT SKY AND/OR WEATHER CONDITIONS ARE NOT AVAILABLE.

MNZ060>063-068>070-251000-
   Twin Cities Metro

CITY           SKY/WX    TMP DP  RH WIND       PRES   REMARKS
TWIN CITIES    CLOUDY    68  65  90 SE12      29.91F FOG
ST PAUL        LGT RAIN  68  65  90 SE10      29.92F
CRYSTAL        CLOUDY    68  64  87 SE9       29.89F
BLAINE         CLOUDY    70  68  94 S10G17    29.91S
LAKEVILLE      DRIZZLE   66  66 100 S7        29.92F
EDEN PRAIRIE   CLOUDY    70  66  87 S14       29.89F
LAKEVILLE      DRIZZLE   66  66 100 S7        29.92F
SOUTH ST PAUL  CLOUDY    68  66  92 SE7       29.92F
LAKE ELMO      LGT RAIN  68  64  88 SE8       29.94F
$$
MNZ001>005-007-008-013>017-022>024-027-028-251000-
   Northwest Minnesota

CITY           SKY/WX    TMP DP  RH WIND       PRES   REMARKS
BEMIDJI        DRIZZLE   64  63  97 S7        29.80F
HALLOCK        CLEAR     64  63  94 S14       29.70F
ROSEAU         CLOUDY    66  61  82 S9        29.75F
WARROAD        CLOUDY    64  61  88 S12       29.76F
THIEF RVR FALL PTCLDY    64  63  96 S10       29.77S
CROOKSTON      CLEAR     64  63  94 S13       29.75F
FOSSTON        CLOUDY    64  63  94 S8        29.78F
DETROIT LAKES  PTCLDY    64  61  88 SW10      29.82F
MOORHEAD       CLEAR     57  54  88 S9        29.81R
PARK RAPIDS    CLOUDY    66  63  90 S12       29.82F FOG
MAHNOMEN       PTSUNNY   65  64  95 SW10      29.78F
$$
MNZ006-009>011-018-025>026-251000-
   North Central Minnesota

CITY           SKY/WX    TMP DP  RH WIND       PRES   REMARKS
BAUDETTE       CLOUDY    63  62  97 SE13G21   29.80F
FLAG ISLAND    CLOUDY    63  61  94 S16       29.75F
INTL FALLS     RAIN      62  61  96 SE9       29.84F
WASKISH        CLOUDY    64  63  94 S6        29.81F
BIG FORK       LGT RAIN  63  61  94 SE8       29.86F
GRAND RAPIDS   RAIN      62  62 100 SE10G18   29.88F FOG
COOK           RAIN      61  59  94 SE8       29.91F
WALKER         LGT RAIN  64  63  97 S9        29.81F
$$
MNZ012-019>021-037-251000-
   Northeast Minnesota

CITY           SKY/WX    TMP DP  RH WIND       PRES   REMARKS
DULUTH         CLOUDY    60  60 100 SE12      29.94F FOG
ELY            CLOUDY    61  57  88 S6        29.94F
HIBBING        LGT RAIN  60  59  96 SE10      29.90F FOG
EVELETH        DRIZZLE   60  59  96 SE5       29.93F
DULUTH HARBOR  CLOUDY    59  57  94 E9        29.95F
TWO HARBORS    CLOUDY    63  57  82 E7        29.94F
SILVER BAY     LGT RAIN  61  57  88 E3        29.96F
GRAND MARAIS     N/A     62  57  83 NE5       30.00F
G MARAIS ARPRT CLOUDY    55  52  88 SE5       30.03F
$$
MNZ029>031-032-039>041-046>048-054>057-064-251000-
   West Central Minnesota

CITY           SKY/WX    TMP DP  RH WIND       PRES   REMARKS
FERGUS FALLS   PTCLDY    61  61 100 SW8       29.85R
MORRIS         CLOUDY    57  52  82 W6        29.86R
ALEXANDRIA     CLOUDY    67  67 100 SW12      29.85S
ELBOW LAKE     FAIR      59  55  84 SW9       29.85R
WADENA         CLOUDY    64  64 100 S8        29.83S FOG
GLENWOOD       LGT RAIN  66  66 100 S14       29.86R
BENSON         MOCLDY    61  48  63 NW13      29.88R
MADISON          N/A     61  52  72 W10       29.89S
WILLMAR        LGT RAIN  66  66 100 S3        29.88S
$$
MNZ033>034-036-042>043-049>051-058-059-251000-
   Central Minnesota

CITY           SKY/WX    TMP DP  RH WIND       PRES   REMARKS
ST CLOUD       LGT RAIN  67  67 100 S10       29.86F
SAUK CENTRE    RAIN      67  66  98 S7        29.85F
PAYNESVILLE    LGT RAIN  67  67 100 S7        29.87S
AITKIN         CLOUDY    66  61  82 SE13      29.85F HAZE
PINE RIVER     RAIN      64  64 100 S10       29.87F
BRAINERD       LGT RAIN  65  64  97 SE12      29.85F FOG
STAPLES        DRIZZLE   64  64 100 S7        29.83S
LONG PRAIRIE   DRIZZLE   64  64 100 SE8       29.85S
LITTLE FALLS   LGT RAIN  64  63  94 SE8       29.85S
BUFFALO        CLOUDY    68  65  88 SE12G17   29.89F
MAPLE LAKE     DRIZZLE   69  67  95 S8        29.89S
HUTCHINSON     CLOUDY    68  67  98 S8        29.90S
$$
MNZ037-044-045-052-053-251000-
   East Central Minnesota

CITY           SKY/WX    TMP DP  RH WIND       PRES   REMARKS
PRINCETON      CLOUDY    68  64  88 SE12      29.88F
MORA           DRIZZLE   64  63  94 S7        29.91F
CAMBRIDGE      CLOUDY    70  64  83 SE10G16   29.89S
MOOSE LAKE     DRIZZLE   63  61  94 S7        29.90F
HINCKLEY       CLOUDY    64  63  94 SE8       29.91F
CLOQUET        CLOUDY    61  59  94 E7        29.93F FOG
MCGREGOR       CLOUDY    63  61  94 SE12G17   29.89F
$$
MNZ071>073-080-081-089-090-097-098-251000-
   Southwest Minnesota

CITY           SKY/WX    TMP DP  RH WIND       PRES   REMARKS
MONTEVIDEO     CLOUDY    63  63 100 W13       29.91R
GRANITE FALLS  LGT RAIN  61  52  72 W16G26    29.91R
CANBY          MOCLDY    58  48  69 SW12      29.91S
MARSHALL       PTCLDY    59  52  77 W15       29.91R
REDWOOD FALLS  CLOUDY    68  64  87 S10       29.87F
OLIVIA         CLOUDY    68  64  88 S5        29.86F
PIPESTONE      PTCLDY    57  48  72 NW8       29.96S
WINDOM         LGT RAIN  66  63  88 S5        29.91F
WORTHINGTON    CLOUDY    63  59  87 W21       29.94R
JACKSON        LGT SNOW  63  61  94 SW6       29.95R
TRACY          CLOUDY    66  63  91 W15G21    29.92R
$$
MNZ065>067-074>077-082>085-091>093-251000-
   South Central Minnesota

CITY           SKY/WX    TMP DP  RH WIND       PRES   REMARKS
MANKATO        MOCLDY    68  66  93 S12       29.91F
NEW ULM        LGT RAIN  66  66 100 S9        29.89F
ST JAMES       LGT RAIN  66  64  94 S8        29.92S
FAIRMONT       LGT RAIN  67  65  93 S12       29.93F
GLENCOE        CLOUDY    69  68  96 S9        29.89F
FARIBAULT      DRIZZLE   68  66  94 S7        29.94S
OWATONNA       DRIZZLE   68  64  88 S7        29.95F
WASECA         CLOUDY    68  64  88 S8        29.95F FOG
ALBERT LEA     CLOUDY    66  66 100 S12       29.95F FOG
$$
MNZ078>079-086>088-094>096-251000-
   Southeast Minnesota

CITY           SKY/WX    TMP DP  RH WIND       PRES   REMARKS
ROCHESTER      CLOUDY    67  66  97 S10       29.97F FOG
RED WING       DRIZZLE   68  64  88 SE7       29.93F
DODGE CENTER   PTCLDY    66  64  94 S7        29.95F FOG
WINONA         LGT RAIN  66  63  88 SE8       29.97F
AUSTIN         CLOUDY    68  64  88 S8        29.95F FOG
PRESTON        CLOUDY    65  63  92 S10       29.99R FOG
$$
ABBREVIATIONS USED IN REMARKS
   TC - TEMPERATURES IN CELSIUS
  WCI - WIND CHILL INDEX
   HX - HEAT INDEX
  VSB - VISIBILITY
$$



USA.gov is the U.S. government's official web portal to all federal, state and local government web resources and services.